RH
21 14 9 8 8 8 8 7 7 7 8 8 10 13 14 15 15 16 16 16 17 19 20 22 23 24 24 24 24 24 25 27 30 31 31 28 26 24 24 22 21 20 20 21 21 21 21 21 21 21 22 23 24 26 28 30 32 34 36 38 39 40 40 41 42 45 49 54 58 61 62 63 64 64 64 62 59 56 54 57 61 67 74 88 92 93
15 11 8 8 8 8 8 7 8 8 9 10 12 14 15 16 16 16 16 18 19 20 21 23 24 24 24 24 24 24 24 27 29 30 29 26 25 24 23 22 21 21 21 22 23 24 24 24 23 23 24 24 26 27 29 31 33 35 37 39 40 42 42 42 43 44 46 50 52 55 56 56 56 55 54 50 48 49 55 55 59 65 70 82 89 92
10 8 6 7 7 7 7 8 8 10 10 12 14 16 17 17 17 17 18 18 20 22 22 23 24 24 24 24 23 23 23 26 28 28 26 24 24 22 22 22 22 22 23 24 26 26 27 26 26 26 26 26 27 29 30 32 34 37 39 40 42 43 44 45 45 46 46 48 49 51 52 52 50 48 46 44 43 45 49 54 60 66 70 76 82 87
6 6 5 6 7 7 8 10 10 11 12 14 16 18 20 19 19 19 20 20 21 22 23 24 24 24 24 24 23 22 22 25 26 26 24 23 22 22 22 22 23 24 24 26 28 30 30 30 30 30 29 29 30 30 32 34 36 38 40 42 43 44 46 47 48 48 48 48 48 48 48 48 46 44 42 42 42 42 46 56 64 69 70 74 78 81
6 6 6 6 7 8 10 11 12 12 14 15 17 20 21 21 21 21 22 23 23 23 23 24 24 24 25 24 23 22 21 23 24 24 23 22 22 22 23 23 24 25 26 28 30 32 34 35 35 35 34 33 33 33 34 35 36 38 40 42 44 46 47 48 50 50 51 50 49 48 46 44 43 42 40 40 40 40 42 49 60 69 72 74 76 78
6 6 7 8 8 10 11 13 14 14 15 17 18 20 22 22 22 23 24 24 24 24 23 23 23 24 24 24 23 22 20 21 22 22 22 22 22 23 24 24 26 27 28 30 33 35 38 39 40 39 38 37 36 36 36 36 38 40 42 43 45 47 48 50 51 52 53 52 51 48 46 43 42 40 40 40 40 42 43 44 52 62 68 72 74 77
6 7 8 8 10 10 12 14 16 17 18 19 20 22 22 22 22 23 24 24 25 24 24 23 22 22 23 23 23 22 21 21 21 22 22 22 23 23 24 26 27 29 30 32 35 37 40 42 42 42 42 41 40 39 38 38 39 40 42 44 46 48 50 51 52 53 54 53 52 50 48 45 43 42 40 41 42 43 45 46 49 54 60 67 72 76
8 8 9 10 10 12 14 16 18 19 21 22 24 24 24 24 22 22 22 24 24 25 24 23 22 21 21 21 21 21 22 22 22 22 23 23 23 24 24 26 28 30 32 34 36 38 40 42 44 44 45 44 43 42 40 40 40 42 43 45 48 49 51 52 53 54 54 53 52 50 49 47 45 44 43 43 44 45 47 48 50 53 56 63 70 76
9 10 10 11 11 12 14 17 19 21 22 26 27 28 28 26 24 22 21 22 23 24 24 23 22 21 20 20 19 20 22 23 23 24 24 24 25 26 26 28 30 32 34 36 37 39 41 42 44 45 46 46 45 44 42 42 42 42 44 46 48 50 52 53 54 54 54 53 52 50 48 48 47 46 46 46 46 47 49 51 53 55 58 62 68 74
10 10 11 11 12 14 16 18 20 23 26 28 30 31 31 30 28 24 22 22 22 23 22 22 22 22 22 20 19 19 21 22 23 23 24 26 26 27 28 30 32 34 36 38 39 40 42 43 44 46 46 46 46 45 44 43 43 43 45 47 49 51 53 54 54 54 54 53 52 50 49 48 48 47 47 48 48 50 52 53 55 58 60 63 68 74
11 11 11 11 13 15 17 19 22 26 29 30 30 31 34 34 32 29 28 25 24 23 22 21 21 22 24 23 22 20 20 20 20 21 23 25 26 27 28 30 32 34 36 38 40 42 42 44 45 46 47 47 46 46 45 44 44 44 46 48 50 52 54 55 56 55 54 53 52 51 50 49 49 48 49 49 50 52 54 56 58 60 63 66 71 76
12 12 11 12 14 16 18 21 25 29 32 29 28 28 32 36 34 33 34 30 27 25 23 21 21 22 26 26 26 24 22 20 19 19 21 24 26 27 27 29 31 33 36 38 40 42 43 45 46 47 48 48 47 47 46 46 46 46 48 50 52 54 56 57 57 56 55 54 53 52 51 50 50 50 50 51 52 54 56 58 61 65 67 72 76 80
12 12 12 14 16 19 20 22 26 29 30 28 28 30 33 34 35 36 37 33 31 28 25 22 21 22 24 29 30 29 25 21 19 18 19 23 26 27 27 28 30 32 34 37 39 42 44 45 46 47 48 48 48 48 48 47 48 48 50 52 54 56 58 58 58 57 56 55 54 53 52 52 52 52 53 54 55 57 59 62 66 70 72 74 78 80
11 12 12 14 16 19 22 26 28 30 31 30 31 33 35 36 36 36 36 34 32 30 27 24 22 20 22 27 32 33 29 24 20 18 18 22 26 27 27 28 28 30 32 35 38 40 43 45 46 47 48 48 49 49 49 49 50 52 54 56 58 59 60 60 60 58 58 57 56 56 55 55 55 55 56 57 58 61 64 67 70 73 76 77 79 80
12 12 13 14 16 20 26 31 34 34 34 32 33 36 38 39 38 36 35 34 32 30 28 26 23 20 20 24 29 31 30 25 21 18 17 21 24 27 27 27 27 28 30 32 36 39 42 44 46 48 49 49 50 51 52 52 54 55 57 60 61 62 62 62 61 60 60 58 58 58 58 58 58 58 58 60 62 65 68 72 74 76 78 78 79 81
12 12 13 15 19 24 31 36 38 39 36 33 34 36 36 37 38 38 38 36 34 32 30 28 26 24 21 23 26 27 27 24 22 19 17 19 23 26 27 26 26 26 27 29 32 35 38 42 45 48 49 50 52 53 55 56 57 58 60 62 63 64 64 64 63 62 61 61 61 60 60 60 60 60 61 65 69 73 73 73 74 76 77 78 81 86
12 13 14 17 22 28 36 39 42 41 36 33 34 36 37 38 40 40 40 38 37 35 34 34 34 33 30 24 24 27 26 25 23 21 19 18 22 25 26 26 25 24 24 26 28 31 34 38 42 46 49 52 53 55 56 58 59 60 61 62 64 64 64 64 64 63 63 63 63 63 63 62 63 64 65 67 70 72 73 74 76 77 80 82 84 88
13 14 16 20 25 31 38 42 43 41 35 33 34 36 38 40 40 40 40 39 38 37 37 38 39 39 38 30 27 28 29 28 26 24 21 20 21 24 26 24 24 23 23 23 24 26 29 32 38 43 48 51 53 55 56 57 57 58 58 60 62 63 64 63 63 62 63 64 64 64 63 63 65 67 69 70 70 72 74 77 79 80 82 82 85 88
14 16 18 23 27 32 40 44 44 42 37 35 35 37 38 40 40 40 40 40 39 38 38 39 39 38 36 30 28 28 30 30 29 27 24 20 21 23 25 24 22 22 20 21 22 24 25 28 32 38 43 47 49 50 50 50 50 51 54 58 61 63 63 60 58 58 60 60 60 60 61 63 66 68 70 73 76 78 80 82 84 85 86 87 90 92
15 17 20 23 28 35 45 43 40 38 38 38 39 40 40 40 40 40 40 40 39 38 38 36 36 35 34 29 28 28 31 33 33 31 26 22 21 22 24 23 22 20 18 19 20 21 22 24 27 32 36 39 40 40 39 39 42 46 52 58 60 60 54 50 49 49 51 52 54 57 61 66 70 73 76 81 84 86 89 89 90 91 90 90 92 92
16 18 19 18 23 30 38 37 38 40 40 42 42 43 44 43 43 42 42 40 39 38 37 35 34 33 32 29 28 29 34 37 39 38 32 26 23 22 24 23 22 20 17 18 18 19 20 22 24 28 31 31 31 30 29 30 36 43 51 52 49 44 39 38 38 40 42 47 54 60 67 72 76 80 83 88 90 92 92 92 92 92 92 92 92 90
16 18 18 18 22 26 30 34 37 40 42 43 45 46 47 47 47 46 44 42 40 39 37 35 33 31 30 27 27 30 35 40 42 41 37 31 26 23 25 23 22 19 17 16 17 18 18 20 23 25 26 26 24 24 23 26 32 37 39 35 31 28 28 28 30 34 40 54 62 68 74 77 80 83 86 90 92 93 92 92 92 92 92 92 92 91
15 16 16 18 22 26 30 33 36 38 41 43 45 47 50 50 50 49 48 46 43 40 37 34 31 28 26 25 26 28 34 38 40 40 40 36 30 25 25 24 22 20 17 17 17 17 18 19 21 23 23 22 21 20 20 23 25 26 26 24 24 24 24 26 30 36 46 58 66 72 76 78 81 84 88 90 92 92 92 92 92 92 92 92 92 92
15 16 16 18 22 26 28 31 34 37 40 43 46 48 50 50 50 50 48 46 42 40 36 32 28 24 23 23 24 27 33 36 38 40 42 40 34 28 25 24 23 20 17 17 17 17 17 18 19 20 21 20 19 18 19 20 21 22 22 22 23 24 26 30 34 41 50 58 65 71 75 78 81 84 88 90 90 90 90 90 91 92 92 92 92 91
16 17 18 20 24 29 32 34 36 39 42 44 45 46 47 48 47 46 44 42 39 35 32 28 24 22 22 22 23 26 32 36 38 39 42 40 34 28 26 26 24 22 18 16 16 17 17 17 18 18 19 18 18 18 18 20 20 21 22 24 26 28 30 34 39 44 50 56 60 64 69 76 81 85 88 90 90 90 90 91 92 92 92 92 91 90
19 21 22 25 29 34 38 40 42 44 47 49 49 48 45 44 43 42 39 36 34 31 29 26 24 22 22 22 22 24 30 37 40 40 40 40 35 30 27 26 25 22 18 16 16 17 18 18 18 18 18 17 17 18 18 20 21 22 23 25 27 30 34 38 42 47 51 54 58 62 67 76 82 85 88 90 90 90 91 92 92 92 91 90 90 90
22 23 26 28 31 35 38 41 44 47 50 53 54 52 47 44 42 39 36 34 32 30 28 27 26 24 24 22 22 24 30 39 44 44 40 38 35 31 27 27 26 24 20 17 16 17 19 19 19 18 17 17 17 18 19 20 22 23 24 26 29 33 37 41 45 49 53 56 60 64 69 78 83 86 89 90 90 90 90 92 91 90 90 90 89 88
22 24 26 30 33 36 39 42 44 47 49 51 52 51 48 44 42 39 36 34 32 31 29 29 29 29 28 27 26 25 28 39 45 46 40 38 34 31 28 27 27 26 24 20 17 16 18 20 20 20 18 18 18 18 19 20 22 23 25 27 30 34 39 44 48 52 56 58 62 67 73 80 84 88 90 90 90 90 90 91 90 90 90 89 88 86
24 26 28 31 34 36 39 42 44 46 47 48 48 47 46 44 42 40 38 35 33 32 32 32 32 33 33 30 27 26 27 36 42 43 38 38 34 31 29 28 28 29 30 26 21 16 15 18 20 20 20 18 18 18 19 20 22 24 26 28 32 36 42 46 50 54 58 61 66 71 77 82 86 89 90 90 90 90 90 90 90 90 90 89 88 87
24 26 28 31 34 36 38 40 42 43 44 45 45 45 45 44 42 40 38 36 34 34 34 34 33 34 34 34 32 31 30 35 39 41 38 39 37 34 32 31 32 35 40 41 37 28 19 16 16 18 19 18 17 17 18 20 22 24 26 29 33 38 43 48 52 56 60 64 69 74 80 85 88 90 90 90 90 90 90 90 90 90 90 89 88 87
25 26 28 31 33 35 37 38 40 40 42 42 43 43 42 42 40 38 36 36 36 36 38 37 35 34 34 39 44 45 38 37 40 44 40 42 42 38 36 37 37 40 47 56 61 58 45 26 17 16 17 16 16 16 18 20 23 26 28 32 35 40 44 50 54 58 62 66 72 77 83 86 88 90 90 90 90 90 89 90 90 90 90 90 89 88
26 26 28 30 32 34 36 37 38 39 40 40 40 40 40 39 37 36 34 35 36 38 40 40 39 37 35 38 43 44 38 37 42 47 45 47 44 40 38 41 42 42 47 57 67 74 73 49 31 19 16 16 16 17 18 21 24 27 31 35 38 42 47 53 58 61 66 70 75 80 85 88 89 90 90 90 90 89 88 88 89 90 90 90 90 89
26 27 29 30 32 34 36 36 38 38 39 39 38 38 36 35 34 34 34 35 36 38 42 43 44 43 40 38 36 34 31 36 42 47 48 50 48 44 40 43 46 47 48 52 58 66 72 60 45 30 20 18 18 18 20 22 26 29 34 38 42 46 51 56 61 66 70 75 79 83 86 88 89 89 90 89 89 88 87 87 88 89 89 90 90 89
27 28 30 31 32 34 35 36 37 37 38 37 36 34 33 32 32 32 33 35 37 39 40 43 45 47 48 44 40 35 32 36 41 46 48 50 51 49 45 47 50 53 54 54 56 58 59 55 48 40 31 22 19 20 22 24 27 31 36 41 46 51 56 61 66 71 76 80 84 86 88 88 89 89 89 88 87 86 86 86 86 88 88 89 90 90
28 29 30 31 32 33 34 34 35 35 34 33 32 31 30 30 31 32 34 36 38 40 40 42 43 45 48 49 46 42 38 38 40 44 47 51 53 53 51 51 54 58 62 62 62 61 58 50 46 44 43 33 24 21 22 26 29 33 38 44 50 55 60 66 72 76 80 84 86 88 89 89 89 89 88 87 86 86 85 84 85 86 88 89 89 90
28 28 29 30 31 32 32 32 32 31 31 30 29 29 29 30 31 32 34 37 38 40 40 41 42 42 44 46 47 46 42 40 40 42 46 50 54 57 57 54 56 60 66 67 67 67 65 57 51 48 49 45 38 29 24 26 31 36 41 47 53 59 64 71 76 81 85 87 88 89 89 89 89 89 88 87 86 85 84 84 84 86 88 88 89 89
28 28 29 30 30 30 31 30 29 28 28 28 28 28 28 30 32 34 36 38 39 40 40 40 40 40 42 43 44 44 42 40 40 40 43 48 53 57 58 55 55 58 66 69 70 71 71 67 61 56 52 52 49 42 34 32 34 39 45 52 58 64 70 74 80 84 88 88 89 89 89 89 89 88 88 86 85 84 83 83 84 85 86 87 88 89
28 28 29 29 30 30 29 28 27 27 26 27 27 28 29 30 32 34 37 39 40 40 40 39 39 39 40 42 42 42 40 39 38 39 40 45 50 55 58 55 54 55 60 66 70 73 76 77 74 70 63 57 51 47 43 42 43 46 51 58 64 70 76 80 83 87 89 89 89 89 89 89 89 88 88 87 86 84 84 84 84 84 85 85 86 87
28 28 28 29 29 28 28 27 26 26 27 27 28 28 30 31 33 35 37 38 40 40 40 40 39 39 39 40 40 40 40 39 38 39 40 44 48 52 55 55 54 54 55 60 65 71 76 78 79 77 75 68 58 50 45 46 50 54 58 64 70 74 79 83 86 88 90 89 89 89 89 89 88 88 88 88 88 87 86 86 85 85 85 85 85 86
27 28 28 28 28 27 27 27 27 27 27 28 29 30 31 32 33 34 36 37 38 39 39 39 38 38 38 38 39 40 40 40 40 40 42 44 47 50 53 55 55 54 54 56 60 65 70 73 73 72 72 72 68 61 54 52 53 58 65 72 77 80 82 86 88 89 90 89 89 89 88 88 88 88 88 88 88 88 88 87 86 86 86 87 87 86
27 27 28 28 28 27 27 27 27 28 28 29 30 32 32 33 34 34 35 36 36 37 38 38 37 37 36 36 36 37 39 40 41 42 43 45 47 49 51 54 55 56 56 57 58 60 64 67 68 66 65 67 67 65 60 56 57 62 71 78 82 85 86 88 88 89 89 89 89 88 89 89 88 88 87 87 87 87 88 88 88 88 88 88 88 88
26 26 27 27 27 27 27 27 28 28 29 30 31 32 33 34 35 36 36 36 37 37 38 38 37 36 36 34 34 35 36 38 40 42 43 45 46 48 50 52 55 58 60 60 59 58 60 63 65 64 62 64 66 66 61 58 60 65 73 80 84 87 88 88 89 89 89 89 89 89 88 88 88 87 87 87 87 87 88 88 88 88 89 89 89 89
26 26 26 26 26 27 27 28 28 29 30 30 32 33 34 36 36 37 37 37 38 38 38 38 38 37 36 35 34 33 33 35 37 39 42 43 45 47 48 50 53 57 61 63 62 60 57 59 60 60 58 61 64 66 63 61 63 68 74 82 86 89 89 88 88 88 89 89 89 89 88 88 88 87 87 88 87 87 87 88 88 88 89 89 89 89
26 26 26 27 27 28 28 28 29 30 30 31 32 34 35 36 37 38 38 38 38 38 39 39 38 38 37 36 35 34 32 33 34 36 39 41 43 45 47 48 50 53 57 62 64 63 60 58 55 53 54 58 62 64 63 64 68 73 78 84 88 89 89 89 89 88 89 88 88 88 88 88 88 88 87 87 87 87 88 88 88 89 89 89 89 89
26 27 27 27 28 28 28 29 30 30 31 32 33 34 35 36 37 38 38 38 39 39 39 40 40 39 38 38 37 36 34 32 32 34 35 38 40 42 43 45 46 48 50 55 60 64 66 62 58 54 54 58 61 64 65 69 73 78 83 87 88 89 89 89 89 89 89 88 88 87 87 87 88 88 88 88 88 88 88 88 89 89 89 89 89 89
27 27 28 28 29 29 30 30 31 31 32 32 33 34 36 36 37 38 38 39 40 40 40 40 41 41 40 40 40 39 37 35 34 33 34 35 36 37 39 40 42 44 46 48 51 55 58 60 60 58 58 61 63 66 68 74 78 83 86 88 88 89 89 88 88 88 88 88 88 87 86 86 87 88 88 88 88 88 88 89 89 89 89 89 89 89
27 28 28 29 30 30 31 31 32 32 32 33 34 35 36 37 38 38 39 40 41 42 42 42 42 42 41 41 42 42 41 39 37 36 35 35 34 34 35 36 38 40 42 44 45 47 49 52 56 60 64 67 68 71 74 78 83 86 87 88 88 88 88 88 88 88 88 88 88 87 86 87 88 88 88 89 88 88 88 88 89 89 90 90 90 89
28 28 28 29 30 30 31 32 32 32 33 34 34 35 36 38 39 40 40 42 42 43 44 44 44 42 41 41 42 43 43 42 40 39 37 37 36 35 34 34 34 35 36 38 40 42 44 48 54 60 66 71 74 78 80 83 86 87 88 88 88 88 89 88 88 88 88 88 88 88 88 88 89 89 89 89 88 88 88 88 89 89 90 90 90 90
28 28 29 30 30 31 32 32 33 34 34 35 35 36 37 39 40 41 42 43 44 44 45 46 45 44 42 40 41 42 42 42 41 40 40 40 40 39 37 36 34 33 32 33 35 38 43 50 57 63 70 75 80 84 86 87 87 88 88 88 88 88 89 88 88 88 88 88 88 88 88 88 89 89 89 89 89 89 88 88 88 89 90 90 90 90
28 29 29 30 31 32 32 33 34 35 36 36 37 38 39 40 40 42 43 43 43 44 44 45 45 44 42 41 40 42 42 42 42 41 42 42 43 42 42 41 40 38 37 35 37 40 47 55 61 67 72 77 83 87 88 88 88 88 88 88 88 88 88 88 88 88 88 88 88 88 89 89 89 89 89 89 89 89 88 88 88 88 89 90 90 90
29 30 30 31 32 33 34 35 36 37 38 38 39 40 40 40 41 42 42 42 42 42 42 42 42 42 42 42 41 41 42 42 43 43 44 44 45 46 46 46 47 48 49 49 50 54 61 67 70 72 72 76 81 86 88 88 88 88 88 88 88 88 88 88 88 88 88 89 89 89 89 89 89 89 89 89 89 89 88 88 88 87 88 89 90 90
Wind_Speed
20 21 21 21 20 20 21 23 24 24 24 24 24 23 24 24 23 22 21 19 17 16 16 15 15 14 14 14 14 15 15 16 16 17 18 19 19 19 19 18 18 18 18 18 18 17 17 16 16 16 16 16 16 17 17 17 17 17 17 17 18 17 17 17 17 17 17 18 18 18 19 19 19 19 20 21 21 22 23 23 23 24 24 24 25 26
20 21 21 21 20 20 21 23 24 24 24 24 24 24 24 23 22 21 19 17 15 14 14 14 14 14 14 14 14 14 15 15 16 17 18 18 18 18 18 18 18 18 18 18 18 17 16 16 16 16 16 16 17 17 17 17 17 17 17 18 18 18 18 18 17 17 17 17 17 17 18 19 19 20 20 21 21 22 23 23 24 24 24 24 25 25
19 20 20 20 20 20 21 23 24 24 24 24 23 23 23 23 21 20 18 15 14 13 13 13 13 13 13 14 14 14 14 15 16 17 17 18 18 18 17 17 17 17 17 17 17 17 16 16 16 16 16 16 17 17 17 17 17 17 18 18 18 18 18 18 18 17 17 17 17 18 18 19 19 20 20 21 22 22 23 24 24 25 25 25 25 26
18 18 18 18 19 20 21 23 24 24 24 23 23 22 22 21 20 18 16 14 13 12 12 12 13 13 13 14 14 14 14 15 16 17 17 18 17 17 17 17 17 17 17 17 17 16 16 15 15 16 16 16 17 17 17 17 17 18 18 18 18 19 19 19 19 18 18 18 18 18 19 19 20 21 21 21 22 23 23 24 25 25 26 26 26 26
16 17 18 18 19 20 21 23 24 24 23 22 22 21 21 20 18 17 15 13 12 11 11 12 12 13 14 14 14 14 14 15 16 17 18 18 17 17 17 16 16 16 16 16 16 16 15 15 15 15 16 16 17 17 17 17 17 18 18 18 19 19 19 19 19 19 19 19 19 19 19 20 21 21 21 22 22 23 24 24 25 26 26 26 26 27
15 17 18 18 19 20 21 22 23 23 23 22 22 21 19 18 17 15 14 13 12 12 11 11 12 13 13 14 14 14 14 15 16 17 18 18 18 17 17 16 16 16 16 16 16 15 15 15 15 16 16 16 17 17 17 17 17 18 18 18 19 19 19 19 18 18 19 19 20 20 21 21 21 22 22 23 23 24 24 25 26 26 26 27 27 27
15 16 18 19 19 20 20 21 22 22 22 22 22 20 18 17 15 14 13 13 13 13 12 11 11 11 12 13 14 15 15 16 17 18 18 18 18 17 17 16 16 16 16 16 16 16 15 15 16 16 16 16 17 17 17 17 17 17 18 18 18 19 19 18 18 18 18 19 20 21 21 22 23 23 23 24 24 25 26 27 27 27 27 27 27 27
15 16 18 19 20 20 20 20 21 21 22 22 22 21 19 16 14 12 11 12 13 13 14 13 12 11 11 13 14 15 16 17 18 18 19 18 18 17 17 16 16 16 16 16 16 16 16 16 16 17 17 17 17 17 17 17 17 17 17 18 18 18 18 18 18 18 18 19 20 21 22 22 23 24 25 25 26 27 27 28 29 29 28 28 27 28
15 16 18 19 20 20 20 19 20 20 21 21 20 20 19 17 15 12 11 10 12 14 15 15 15 14 12 13 14 15 17 17 18 19 19 19 18 17 17 17 17 16 16 16 16 16 16 17 17 17 18 18 18 17 17 17 17 17 17 17 18 18 18 18 18 18 19 19 20 21 22 22 23 24 25 26 27 28 28 29 30 30 28 27 27 27
16 17 18 19 20 19 19 18 19 20 20 19 18 17 17 17 17 15 13 12 13 13 14 16 17 17 16 14 14 15 16 17 18 18 18 18 17 17 17 17 17 17 17 16 16 16 17 17 17 18 18 18 18 18 17 17 16 17 17 17 18 18 18 18 19 19 19 20 21 21 22 23 24 24 26 27 28 28 29 30 31 30 28 27 27 27
17 17 18 19 19 19 18 18 18 19 19 18 16 15 14 15 16 17 17 17 16 15 14 15 17 18 19 18 17 16 17 17 17 17 16 16 16 16 16 16 17 17 17 17 17 17 17 17 18 18 19 19 18 18 17 17 17 17 17 17 18 18 18 19 19 20 20 21 21 22 23 24 24 25 26 27 28 29 30 31 31 30 28 27 27 28
17 17 18 19 18 18 18 18 18 18 18 17 16 15 14 14 15 16 17 18 19 19 18 16 16 17 18 19 20 19 18 18 18 18 17 16 16 16 16 16 16 17 17 17 16 17 17 17 18 18 19 19 18 18 17 17 17 17 17 17 18 18 19 20 20 21 21 22 23 23 24 25 25 26 27 28 29 30 30 31 31 29 28 28 28 28
17 18 18 18 18 17 17 17 17 17 17 17 17 16 15 15 15 15 16 17 18 19 19 19 18 18 18 19 20 21 20 20 18 17 17 17 17 18 18 18 18 18 17 17 17 17 17 18 18 18 18 18 18 18 18 17 17 17 17 18 19 19 20 21 21 22 23 23 24 25 25 26 27 28 28 29 30 30 30 30 29 28 27 28 28 28
17 17 17 16 16 16 17 17 17 17 17 17 16 15 14 14 14 15 15 17 18 19 19 19 19 19 18 19 20 21 21 21 19 17 16 16 18 19 20 20 19 19 18 18 18 18 18 18 18 18 18 18 18 18 18 18 18 18 18 19 20 20 21 22 23 24 24 25 26 26 27 28 28 29 29 30 30 30 30 29 28 28 28 28 29 29
17 17 16 15 15 15 16 17 17 16 16 16 15 14 14 14 14 15 16 18 19 20 20 20 20 19 19 20 21 22 22 22 21 19 16 16 17 19 20 21 20 19 19 19 19 19 18 19 19 19 18 18 18 18 18 18 18 18 18 19 20 21 22 23 24 25 26 26 27 27 27 28 28 29 29 30 30 30 29 29 29 29 29 29 29 29
16 16 15 14 14 14 15 15 15 15 15 15 14 14 14 14 15 16 17 18 20 21 22 24 25 24 21 20 20 21 23 22 22 21 19 17 18 19 21 22 22 21 20 20 20 19 19 19 19 19 19 18 18 18 18 18 18 18 18 19 20 21 22 23 24 25 26 26 26 27 27 27 28 28 28 29 29 29 29 29 29 29 29 29 28 28
16 15 14 14 13 13 14 14 14 14 15 14 14 13 13 14 15 16 17 18 20 22 23 25 27 28 27 24 22 22 23 23 23 22 20 19 19 20 21 23 23 22 21 21 21 20 20 20 20 19 18 18 18 17 17 17 17 18 18 19 20 21 22 23 24 24 25 25 25 26 26 26 27 27 27 28 28 28 28 28 28 28 28 27 27 26
15 14 14 13 12 12 13 13 13 14 15 15 14 13 13 13 14 15 17 18 20 22 23 25 26 27 28 28 27 24 24 24 24 24 23 21 20 20 22 23 23 23 22 22 22 21 21 21 21 20 18 17 17 17 17 17 17 18 19 20 21 22 23 23 24 24 24 24 24 24 25 25 26 26 27 27 27 27 27 27 27 26 26 26 26 26
14 14 13 12 12 12 12 11 12 14 15 15 15 14 14 13 14 15 16 18 19 21 23 25 26 26 27 27 27 25 25 24 24 24 24 23 22 22 23 24 24 24 23 23 23 23 22 22 21 20 18 17 17 17 17 18 19 20 21 22 23 24 24 23 23 23 23 23 23 23 24 24 25 26 26 26 26 26 26 26 26 26 26 25 25 25
13 13 12 12 12 12 12 12 12 13 14 14 14 14 14 15 15 16 17 18 19 21 22 24 25 26 26 26 26 25 24 24 23 24 24 23 23 23 25 26 27 26 25 24 24 24 24 23 22 20 19 18 18 19 19 20 21 22 23 23 24 24 24 23 22 22 22 21 22 22 23 24 25 26 26 26 26 26 26 26 26 25 25 25 25 26
12 12 12 12 12 11 11 11 11 12 13 13 14 14 15 16 16 17 18 19 20 22 23 24 25 26 26 26 25 25 24 23 23 23 24 24 24 24 25 27 28 28 27 26 25 25 25 24 23 21 20 20 20 21 22 23 23 23 23 23 23 23 22 21 21 20 20 20 21 22 23 24 25 25 25 26 26 26 25 25 25 25 25 25 25 25
11 11 12 11 11 10 10 10 10 10 11 12 13 14 15 17 18 19 20 21 22 22 23 24 24 24 25 25 24 23 22 21 21 22 24 26 26 26 27 28 28 29 29 28 27 26 26 25 24 22 21 22 22 23 24 24 24 23 23 22 22 21 21 20 19 19 20 20 21 22 23 24 24 25 25 25 25 25 24 24 24 24 24 24 25 25
11 11 11 11 10 10 10 9 9 10 10 11 12 13 14 16 17 19 20 21 22 22 23 23 23 23 22 23 23 22 21 20 21 22 23 26 28 29 28 29 30 30 30 29 29 28 27 26 24 23 23 23 24 25 25 25 24 23 22 21 21 20 20 19 20 20 20 21 22 22 23 23 23 24 24 24 24 24 24 23 23 23 24 24 24 25
11 11 11 10 10 10 10 9 9 10 10 11 12 12 13 14 15 17 19 20 21 22 23 23 23 22 23 23 23 22 20 20 21 23 24 26 29 30 30 30 31 31 31 30 30 30 29 27 25 24 24 25 26 26 26 25 23 22 21 20 20 20 20 20 20 21 21 21 21 22 22 22 22 23 23 23 24 24 23 23 23 23 23 24 24 25
10 10 10 10 10 10 10 10 10 10 11 12 13 13 13 13 14 15 17 18 20 22 23 24 24 25 25 25 25 24 21 21 22 23 25 27 29 30 30 30 31 32 32 31 31 31 30 28 27 26 26 27 27 27 26 24 23 21 21 20 20 20 20 21 21 21 21 21 21 21 21 21 21 22 22 23 24 24 23 23 23 23 24 24 25 26
10 10 10 9 9 9 9 9 10 10 11 12 14 15 14 14 14 16 17 19 21 23 25 26 27 27 26 27 27 26 23 22 22 23 25 27 30 31 30 30 30 31 32 31 31 31 31 30 29 28 28 29 29 28 26 24 22 21 21 20 21 21 21 21 22 21 21 21 21 21 21 21 21 22 22 23 23 23 23 24 24 24 24 25 27 28
10 10 9 9 9 8 8 9 9 9 10 11 13 15 16 16 17 18 20 21 23 24 26 28 29 29 28 28 27 26 24 23 22 23 25 26 29 30 30 30 31 31 32 32 32 32 32 32 31 30 31 31 30 29 27 25 23 22 22 22 22 22 23 23 23 23 22 22 22 22 22 22 22 22 23 23 23 23 23 24 24 25 26 27 28 28
9 9 9 8 8 8 8 8 8 9 9 10 12 14 16 17 19 21 22 23 24 24 25 26 28 29 30 30 29 27 25 23 23 24 25 26 27 29 30 30 30 31 32 32 32 32 32 32 32 32 33 33 32 31 29 27 25 24 24 24 24 25 25 25 25 24 24 24 25 25 24 24 24 24 23 23 23 23 23 24 24 25 26 27 28 28
9 9 9 9 9 8 8 8 8 8 9 10 12 13 15 17 19 21 22 23 24 24 24 25 26 27 29 29 29 27 25 23 23 25 26 26 27 28 29 29 30 31 33 34 34 33 33 32 32 33 34 34 33 32 31 29 27 26 26 26 27 27 27 27 27 26 26 27 27 27 26 26 25 25 24 24 24 24 24 24 25 26 27 27 27 26
10 9 9 9 9 9 8 8 8 9 10 11 12 14 15 17 18 20 21 22 23 23 24 24 25 26 27 29 29 28 26 24 23 24 26 27 28 29 29 29 29 30 32 34 36 37 37 35 33 34 35 35 34 33 32 31 30 29 29 29 29 29 29 29 28 28 28 28 28 28 28 27 26 25 25 24 24 24 25 25 25 26 26 26 25 24
10 9 9 9 9 9 9 9 9 10 10 11 13 14 15 17 18 19 20 20 21 22 22 23 24 24 26 27 28 28 28 25 23 23 25 26 27 28 29 29 29 29 30 31 32 34 37 38 37 36 35 35 35 34 33 32 31 30 30 31 31 31 30 30 29 29 29 29 29 29 29 28 27 26 25 25 25 26 26 26 26 26 25 25 24 22
10 10 10 10 10 10 10 10 10 11 11 12 13 14 15 16 17 18 18 19 19 20 21 22 23 23 23 24 25 26 27 25 23 23 24 25 26 27 27 28 29 29 29 29 29 29 31 37 40 39 37 36 36 35 34 32 31 31 31 32 32 32 31 31 30 30 30 30 30 30 30 29 28 27 27 27 27 27 28 27 26 25 24 23 22 21
10 10 11 11 11 11 11 11 11 12 12 13 13 14 15 16 16 17 17 17 18 19 20 22 23 23 23 22 22 22 22 22 22 22 22 23 25 26 27 28 29 30 29 29 29 29 30 34 38 40 40 38 37 36 34 33 32 31 31 32 33 33 32 32 31 31 31 31 31 31 30 30 29 29 29 29 29 29 28 27 25 23 22 21 20 19
10 10 11 11 11 11 11 11 12 12 13 13 14 14 15 15 16 16 16 16 17 18 19 20 21 22 23 23 23 21 20 19 19 19 21 22 24 25 26 27 28 29 30 31 31 31 32 33 36 39 40 39 38 36 35 34 32 31 31 32 33 33 33 32 32 31 31 31 31 31 30 30 30 30 31 31 31 30 29 27 24 22 19 18 17 18
10 10 11 11 11 11 11 11 12 12 13 14 14 15 15 15 15 15 16 16 16 16 17 18 19 20 21 22 23 22 21 19 18 18 19 21 23 25 26 27 28 29 30 31 32 32 34 35 36 37 39 40 39 37 35 33 32 32 32 32 33 33 33 33 32 32 31 31 31 30 30 30 31 31 32 33 32 31 29 27 24 21 18 16 15 15
10 10 11 11 11 11 12 12 13 13 14 14 14 15 15 16 16 16 16 16 16 16 16 16 17 17 18 19 20 21 21 20 19 18 19 20 22 24 26 26 27 27 29 30 31 32 34 35 36 36 38 40 40 39 36 34 33 33 33 33 33 34 33 32 32 31 31 30 30 30 30 30 31 32 33 33 32 30 29 27 25 22 18 15 13 12
10 11 11 12 12 12 12 13 14 14 15 15 15 16 16 16 16 16 16 16 16 16 16 16 16 16 16 16 17 18 19 19 19 18 19 20 21 23 24 25 26 26 27 29 30 31 33 35 36 37 38 38 39 39 38 36 35 34 34 34 35 35 34 33 32 31 30 29 29 29 30 32 33 33 33 33 32 31 30 28 25 22 19 16 13 12
11 11 12 12 12 13 13 14 14 15 16 16 16 16 17 16 17 16 16 16 16 16 16 16 16 15 15 15 15 16 16 17 18 18 19 19 20 21 23 25 25 25 26 27 29 30 32 33 35 36 37 38 38 38 38 37 37 37 37 36 36 36 35 33 32 30 29 29 29 30 32 33 33 33 33 32 32 32 31 29 27 24 21 18 15 13
11 12 12 13 13 14 14 15 15 16 16 16 16 17 17 16 16 16 16 16 16 16 16 16 16 16 15 15 15 15 16 16 17 18 19 19 20 21 22 24 25 25 26 26 27 29 30 31 33 35 36 38 39 38 37 37 37 38 38 39 38 37 35 34 32 30 29 29 30 32 33 34 34 33 32 32 32 32 32 31 28 26 23 21 19 16
11 12 12 13 14 14 15 15 16 16 16 16 16 16 16 16 16 15 15 15 15 16 16 16 15 15 15 15 15 16 16 17 17 18 18 19 20 20 21 23 24 25 26 26 27 28 29 31 32 34 35 36 38 39 38 37 36 37 38 38 38 38 36 34 31 30 29 29 31 32 34 34 33 32 32 32 31 32 31 31 29 27 24 23 22 20
12 12 13 13 14 14 15 15 15 16 16 16 16 16 17 17 17 17 16 16 16 17 17 17 16 15 14 14 14 16 16 17 18 18 19 19 20 20 21 22 23 25 26 27 28 28 29 31 32 34 35 35 36 37 37 37 36 36 36 36 37 37 36 33 30 29 30 31 32 33 33 33 33 33 32 32 32 31 30 30 29 27 25 22 21 21
12 13 13 13 14 14 14 15 15 15 15 15 16 16 17 18 18 19 19 19 19 20 20 20 20 19 18 16 15 15 16 17 18 18 19 19 20 20 21 22 23 24 26 27 28 29 30 31 32 33 34 34 35 36 37 36 36 35 34 35 36 37 36 33 31 31 31 32 33 33 33 33 33 33 33 33 32 32 31 30 28 26 25 23 20 19
12 13 13 13 14 14 14 15 15 15 15 16 16 16 17 18 19 19 20 21 21 22 22 23 23 23 23 21 19 17 17 17 18 19 19 20 21 21 22 22 23 24 25 27 29 30 31 32 32 33 33 32 33 34 35 36 35 35 34 34 33 33 34 34 34 34 33 33 32 32 32 32 33 33 33 33 32 32 31 30 28 26 24 23 21 19
12 13 13 13 14 14 14 15 15 16 16 16 17 17 17 18 19 20 20 21 22 22 23 24 25 25 25 25 24 22 20 19 18 19 20 20 21 21 22 23 23 24 25 26 28 31 32 33 33 33 31 30 30 31 32 34 34 35 34 33 32 31 31 33 34 35 34 34 33 32 32 32 33 33 34 34 33 32 32 31 29 27 25 22 21 20
12 12 13 13 14 14 14 15 16 16 16 17 17 18 18 19 19 20 21 22 23 23 24 25 26 27 27 27 27 26 24 22 21 21 20 21 21 21 22 23 24 25 26 27 28 30 32 33 34 34 32 30 29 29 30 31 33 34 34 33 32 31 31 31 32 33 33 33 33 33 32 33 33 34 35 34 34 33 32 32 30 28 26 23 22 21
12 13 13 14 14 15 15 16 16 17 17 17 18 18 19 19 20 20 21 22 23 24 25 25 26 27 29 29 29 29 28 27 25 24 23 22 22 22 23 23 24 26 27 28 29 30 31 32 33 33 32 31 30 29 29 30 31 33 34 33 32 32 32 32 32 32 32 32 33 33 33 34 34 34 34 34 34 34 33 32 30 28 26 24 23 22
13 13 14 14 15 15 16 17 17 17 17 18 18 19 20 20 21 21 22 23 24 25 26 26 26 27 28 28 29 30 30 30 29 27 26 25 25 24 24 25 25 26 28 29 30 31 31 32 31 30 29 29 29 30 30 30 30 31 32 33 33 32 32 32 32 32 31 32 32 33 34 34 34 34 34 34 34 34 33 31 29 27 25 24 23 22
13 14 14 15 15 16 17 17 18 18 19 19 19 19 20 21 22 23 23 24 25 26 27 27 28 28 28 28 28 29 29 30 29 29 28 28 27 27 27 27 28 28 29 30 31 32 32 32 31 29 27 26 26 28 30 31 31 31 32 32 32 32 33 33 32 32 32 32 33 33 33 33 33 33 34 35 35 35 34 32 29 26 25 24 23 23
14 15 15 16 16 17 18 18 19 19 19 20 20 20 20 21 22 23 24 24 25 26 27 28 28 29 29 28 28 28 28 28 28 28 28 28 29 29 29 29 30 31 31 32 33 33 34 34 32 29 26 24 24 26 29 32 33 33 32 32 32 32 33 33 33 33 33 33 34 33 33 32 31 31 32 33 35 35 35 32 29 27 25 24 23 23
14 15 16 17 17 18 19 19 20 20 21 21 21 22 21 21 22 22 23 24 25 26 26 27 28 29 29 29 28 28 28 28 28 28 28 28 29 29 30 31 32 33 34 35 36 37 37 37 35 32 28 25 23 25 29 33 34 34 33 32 32 32 33 34 34 34 34 34 34 33 33 32 31 30 30 31 33 34 34 32 30 27 25 24 23 22
15 16 17 17 18 19 19 20 20 21 21 22 22 23 23 23 23 23 24 25 25 26 26 26 27 28 28 28 28 28 28 28 28 28 28 28 28 29 30 31 32 34 35 37 38 39 40 40 40 37 33 28 27 28 30 32 34 35 34 33 32 32 33 34 34 34 34 33 33 33 32 31 31 30 30 31 32 33 34 33 30 28 26 24 23 22
Wind_Direction
300 304 310 316 319 320 319 318 319 321 324 327 328 328 328 329 330 331 332 332 332 331 331 330 331 333 335 338 340 343 346 349 349 347 345 343 342 341 341 342 342 342 342 342 342 340 339 336 335 333 333 332 332 333 333 333 333 333 334 334 333 333 333 334 335 335 334 333 332 331 330 331 331 331 331 331 331 332 333 332 334 335 336 335 334 333
303 307 312 317 320 321 319 318 319 321 325 327 329 329 330 331 332 333 334 334 334 333 332 331 331 334 337 340 342 345 348 351 351 348 345 343 342 341 341 341 342 341 341 340 339 338 337 335 333 332 331 331 331 331 331 331 331 331 331 331 331 330 331 331 331 331 331 329 328 327 327 327 328 328 329 329 330 330 331 331 332 334 334 334 333 332
301 306 312 317 320 320 318 317 319 322 326 329 330 331 332 333 334 334 335 336 336 335 333 332 333 336 339 342 344 347 350 353 352 349 347 344 343 342 342 341 341 340 339 338 337 336 335 333 332 331 330 329 329 329 329 329 329 329 329 329 329 328 328 328 328 327 326 326 325 324 324 324 324 325 326 327 328 329 330 330 331 332 333 333 332 332
302 307 313 318 320 320 318 317 319 322 327 330 332 333 334 334 335 336 337 337 337 336 335 335 337 340 342 344 346 349 352 355 354 351 348 346 344 342 341 341 340 339 337 336 335 335 334 333 331 330 329 328 327 327 327 327 327 327 327 327 326 326 325 325 324 324 323 323 322 322 322 322 322 323 324 326 327 328 329 329 330 331 332 332 332 332
307 312 316 319 321 320 319 318 320 323 328 331 333 334 335 336 337 337 338 339 338 338 337 340 342 344 345 345 347 350 354 356 356 353 350 347 344 343 342 341 340 338 336 335 334 333 334 333 332 331 329 328 326 326 325 325 325 324 324 324 323 323 322 322 322 321 321 321 320 320 320 320 321 322 323 325 326 327 328 328 329 330 331 331 331 331
312 315 318 320 321 320 320 319 321 325 330 333 334 336 337 339 340 340 340 340 340 340 342 344 346 346 346 346 348 351 355 358 357 355 351 348 345 343 342 341 340 338 336 334 334 334 334 334 333 332 330 329 327 325 324 323 322 322 321 321 321 320 320 319 319 319 319 319 319 319 319 319 320 321 323 324 325 326 327 328 328 329 329 329 329 330
316 318 319 320 321 321 321 321 323 327 331 334 335 337 339 342 343 343 342 342 343 344 346 349 349 348 347 346 349 352 356 358 358 356 352 348 345 343 343 342 341 339 337 335 334 334 335 334 334 333 332 330 328 326 323 321 320 320 319 319 318 318 317 317 317 317 317 317 318 319 319 320 321 322 323 324 324 325 326 327 327 328 328 328 328 328
319 319 320 320 321 322 324 325 327 329 332 334 336 337 339 342 345 346 345 345 346 348 350 352 353 352 350 349 350 353 357 358 358 356 352 348 345 343 343 343 342 341 339 337 336 336 336 335 335 334 333 331 329 327 324 321 319 318 318 317 316 316 316 316 316 316 316 316 317 318 319 320 321 322 322 323 324 324 325 325 326 326 326 326 326 326
321 321 321 321 322 323 326 328 329 331 333 335 336 337 338 339 343 347 350 352 352 353 353 354 355 355 354 353 353 355 357 358 357 355 353 349 346 344 344 344 344 343 341 339 338 337 337 337 336 336 334 332 330 327 324 321 319 318 317 316 316 316 315 315 315 315 315 316 316 317 318 319 320 321 322 322 322 323 323 324 324 324 324 324 324 325
323 323 323 323 324 326 328 329 330 332 334 336 336 337 337 340 343 347 352 357 358 358 357 356 356 355 354 355 357 358 358 356 355 355 354 350 347 345 345 346 346 345 344 343 341 339 338 338 338 337 335 332 330 327 324 322 319 318 317 316 316 316 316 316 316 315 315 316 316 317 318 319 319 320 320 320 321 321 321 322 322 322 322 322 322 323
325 325 326 326 327 328 331 331 332 333 334 335 336 338 341 344 347 349 352 354 357 358 360 1 359 357 355 355 357 359 358 353 352 353 355 353 349 346 346 346 347 347 346 345 343 342 341 340 339 337 335 333 330 328 325 322 320 319 318 317 317 317 317 317 316 316 316 316 316 317 317 318 319 319 319 319 319 319 319 319 320 320 320 320 320 321
327 328 329 329 328 328 330 332 333 333 333 335 340 345 350 351 352 353 352 352 354 355 356 359 1 1 358 356 356 356 356 352 350 351 354 354 351 347 347 347 347 347 346 346 345 343 342 341 340 338 335 332 330 328 326 323 321 320 319 319 319 318 318 318 317 317 316 316 317 317 318 318 318 318 318 317 317 317 317 318 318 318 319 319 319 320
331 332 333 332 330 328 329 330 331 333 336 341 346 350 351 352 354 355 353 353 354 354 353 354 358 2 3 0 358 355 352 350 348 349 353 356 354 350 348 348 348 347 347 346 346 345 344 342 340 337 335 332 330 328 326 324 323 322 321 321 320 320 320 319 318 318 317 317 317 318 318 318 318 317 317 317 316 316 316 317 317 317 317 317 318 318
334 335 335 332 329 327 328 330 332 336 342 348 351 352 352 354 355 354 353 353 354 353 351 351 354 359 5 5 0 355 351 347 345 347 353 360 358 353 349 348 348 348 347 347 348 347 346 344 341 338 335 332 330 328 327 326 325 324 323 323 323 322 321 320 319 319 318 318 318 318 319 318 318 317 317 316 316 316 316 316 316 316 316 316 317 317
335 335 334 330 327 326 328 331 335 341 347 352 355 355 355 356 356 355 354 353 353 352 351 351 352 357 6 7 2 355 350 346 344 345 351 1 1 356 350 347 346 347 348 348 348 348 348 347 344 341 337 334 332 331 329 328 327 327 326 325 325 324 323 322 321 320 319 319 319 319 319 318 317 317 317 316 316 315 315 315 315 315 316 316 316 317
336 336 334 331 328 327 328 331 337 344 350 355 357 357 357 357 357 356 355 353 352 352 352 352 352 354 360 6 3 356 350 346 345 345 347 355 360 357 350 345 344 346 348 348 348 347 348 349 347 344 341 338 336 334 333 331 331 330 329 328 328 326 325 323 322 320 320 319 319 318 318 317 317 317 316 316 316 316 316 316 316 316 316 316 316 317
336 335 334 331 330 328 328 334 341 346 351 356 359 359 358 357 356 355 354 353 352 353 354 355 353 351 351 356 1 359 352 348 345 344 344 349 355 355 351 345 343 344 347 348 347 347 348 350 350 348 345 342 339 338 336 335 334 334 333 332 331 329 327 325 323 321 319 318 317 317 317 317 317 317 317 318 318 318 318 318 317 317 317 317 316 317
335 334 333 331 330 329 330 337 342 346 350 355 357 357 357 355 354 353 353 352 352 353 354 355 354 350 347 350 355 357 352 349 345 342 342 345 350 352 350 345 343 343 345 346 346 347 348 350 351 350 347 345 342 341 339 338 338 337 337 336 334 332 329 326 323 321 318 317 316 316 316 317 318 319 320 320 321 320 320 319 318 317 317 317 316 317
332 331 331 331 332 334 338 341 342 344 349 352 353 353 353 353 353 352 352 353 353 353 352 352 352 350 348 348 351 354 352 349 345 340 339 340 345 349 348 344 342 342 343 345 346 346 347 349 350 350 348 346 344 342 341 341 340 340 339 338 335 332 329 326 322 319 317 316 316 317 318 320 322 323 323 323 323 322 321 320 319 318 318 318 318 318
330 329 330 332 335 340 346 347 347 348 349 350 350 350 350 350 351 352 352 351 352 352 351 350 349 348 347 348 350 352 350 348 343 338 336 337 342 346 346 343 341 341 342 344 345 345 346 347 349 349 348 346 345 344 344 343 343 342 340 336 332 329 326 324 321 319 317 318 319 321 324 325 325 325 324 323 323 323 322 321 320 320 319 319 319 318
329 328 331 338 343 348 352 352 352 352 350 349 348 348 349 349 350 351 350 350 350 350 350 348 346 345 345 346 349 352 350 346 340 335 333 334 339 343 345 343 341 340 340 343 344 344 345 346 348 349 348 348 347 347 347 347 347 344 339 333 329 327 325 324 322 322 323 325 327 328 328 326 325 324 323 323 323 323 322 322 321 321 320 320 319 319
331 330 337 347 353 355 355 356 355 352 349 348 348 349 349 349 349 349 348 348 348 347 346 344 343 342 342 344 348 352 349 344 338 334 333 332 335 341 344 343 341 339 339 340 342 342 344 346 348 349 350 350 350 350 351 350 348 344 338 334 331 329 328 328 328 330 332 333 332 330 328 325 323 323 323 323 323 323 323 322 322 321 321 320 319 317
342 344 349 354 357 358 359 359 357 354 351 351 350 350 350 349 348 347 346 345 344 342 341 339 338 338 339 343 348 351 349 344 339 336 334 331 333 338 343 343 340 338 338 339 340 340 342 345 348 350 351 352 352 353 353 352 349 344 340 337 336 335 335 335 336 337 338 336 333 329 326 324 324 324 325 325 325 325 324 323 322 321 320 319 317 315
350 353 355 357 358 360 0 360 358 356 354 353 351 351 349 348 346 344 343 341 339 337 335 334 334 336 339 344 349 352 351 345 341 339 336 331 332 337 341 341 338 336 336 338 338 338 340 344 348 351 352 353 354 354 354 352 349 346 343 342 341 341 340 341 341 341 340 336 333 329 327 327 327 328 328 327 326 326 325 324 323 322 320 318 316 313
357 357 357 359 2 3 2 1 360 357 354 352 350 348 346 345 343 340 338 335 334 334 334 334 336 339 342 344 348 352 352 347 344 341 336 332 332 334 338 339 337 335 335 336 337 337 339 343 347 351 352 353 354 354 354 352 349 347 345 345 344 344 344 344 343 342 340 337 334 332 332 332 332 332 331 329 328 327 326 325 324 322 320 317 313 310
5 4 4 4 5 5 3 2 1 359 354 350 346 343 341 341 340 337 335 335 336 337 338 339 340 341 342 344 347 350 352 349 345 341 338 333 331 332 336 338 337 335 334 335 337 337 339 343 347 349 351 352 353 354 353 352 350 348 347 347 347 347 347 346 345 343 341 339 339 339 339 339 338 336 333 331 329 328 327 326 324 321 318 315 311 309
9 8 7 8 7 5 3 2 360 357 352 347 343 340 339 339 339 338 339 340 340 341 341 341 341 340 341 342 345 348 351 350 346 341 338 334 331 331 335 337 337 336 335 336 336 338 340 343 346 348 349 350 351 352 352 352 350 349 349 349 349 350 349 348 346 345 344 344 345 345 345 343 341 338 334 332 330 328 327 326 324 321 318 315 313 312
12 13 13 12 11 9 6 3 360 354 349 346 343 342 340 340 340 341 342 341 341 341 341 341 341 340 340 340 342 346 351 352 346 339 337 335 332 332 336 338 339 338 338 337 336 337 339 342 344 346 346 347 348 349 351 351 351 350 350 350 351 352 351 350 348 347 347 348 349 349 348 346 342 339 335 332 330 328 327 326 325 323 320 318 317 316
16 18 19 19 17 15 12 7 1 355 350 348 346 345 344 342 341 341 340 339 340 341 341 341 341 340 339 338 339 344 350 352 346 339 337 335 334 335 338 341 341 342 341 340 337 337 339 341 343 344 344 344 345 347 349 350 350 350 350 351 351 352 352 350 349 349 349 350 351 351 349 346 342 338 335 332 329 328 327 326 326 325 323 321 320 320
17 19 19 20 21 19 16 11 3 357 354 351 350 348 345 343 340 338 338 337 339 341 341 341 341 340 339 338 338 341 346 351 347 340 338 337 337 337 340 343 345 346 345 343 340 338 338 340 342 342 342 343 344 345 348 349 350 350 350 350 351 351 351 350 349 349 350 351 351 350 348 345 341 337 333 331 329 327 327 327 327 326 324 323 322 322
19 20 19 19 20 20 16 12 6 0 357 354 351 348 344 341 339 337 337 336 338 340 341 340 340 341 341 340 337 336 339 347 347 342 340 338 337 338 342 344 347 348 348 345 340 335 333 336 338 341 341 341 343 344 347 349 350 350 350 349 349 349 350 349 349 349 349 350 350 349 346 343 339 335 332 330 328 328 328 328 329 328 327 325 324 324
22 21 21 19 18 17 13 9 5 360 356 352 349 345 342 339 337 336 336 338 339 341 341 341 340 340 341 340 337 335 338 346 348 344 342 339 338 339 342 345 347 348 348 345 340 332 327 329 334 339 339 340 341 344 346 348 349 349 349 348 347 347 348 349 349 348 348 349 349 347 344 341 337 334 331 329 329 329 330 331 331 331 329 327 326 325
23 22 20 18 16 13 9 5 0 356 352 348 344 342 339 337 335 335 336 339 341 342 342 341 340 339 339 339 337 338 343 348 347 344 342 339 338 339 342 345 346 346 345 344 341 336 330 328 332 336 337 338 340 343 345 347 348 349 348 347 346 346 347 348 348 348 347 347 346 345 342 338 335 332 330 330 330 331 333 334 334 334 332 330 328 326
25 23 20 18 14 10 5 0 356 352 347 344 341 339 337 336 336 336 338 341 344 344 343 341 340 338 337 336 336 338 344 348 347 345 344 341 340 340 342 344 346 345 343 342 341 339 335 333 333 334 335 337 339 341 344 346 346 347 347 346 346 346 347 348 348 347 346 345 344 342 338 335 333 331 330 331 332 334 335 336 337 338 336 333 330 327
24 22 19 16 12 7 2 357 352 348 345 342 340 338 338 338 338 340 342 344 346 346 344 342 339 338 336 334 334 335 340 345 347 347 347 345 343 341 341 343 344 343 340 339 338 337 335 335 335 335 333 335 337 340 343 344 344 345 346 345 345 345 346 347 347 346 345 344 341 338 335 333 331 330 330 332 333 335 337 339 341 342 341 338 334 330
20 17 13 10 6 2 358 354 350 347 344 342 341 340 340 340 341 342 344 346 347 345 344 341 339 337 335 333 332 333 336 341 345 348 350 348 345 342 340 340 342 341 338 336 336 335 334 334 335 335 334 333 334 337 341 343 344 344 344 345 344 345 346 347 347 345 343 341 338 335 332 331 330 330 331 332 334 336 339 342 345 346 346 344 340 336
17 13 9 6 2 358 355 352 349 346 344 343 342 342 342 342 343 345 346 347 346 344 342 340 338 337 335 333 332 332 335 339 343 347 350 350 347 342 339 339 341 342 338 335 334 334 333 332 332 333 333 331 330 332 336 340 342 344 344 343 343 343 345 346 346 345 342 339 335 331 329 329 329 330 331 333 336 339 342 346 348 350 349 348 346 343
15 11 7 3 360 357 353 351 349 347 346 345 344 343 343 344 345 346 347 346 345 343 341 340 339 338 337 335 334 334 336 339 343 347 350 351 348 343 340 338 340 342 340 337 334 333 331 328 327 327 328 329 330 331 333 336 338 339 340 341 341 341 342 344 345 344 341 336 332 329 328 328 329 331 332 334 337 340 342 346 349 352 352 350 348 346
13 9 5 1 358 356 353 351 349 348 346 345 344 343 343 343 345 346 347 346 344 343 342 341 341 341 340 340 339 339 341 343 346 348 350 350 348 344 341 338 338 340 340 339 336 333 329 326 323 322 323 325 327 330 333 335 336 336 337 338 339 340 341 342 343 341 338 333 329 327 327 328 330 331 332 335 337 339 341 343 347 351 352 350 347 344
11 8 4 1 358 355 353 351 349 348 346 345 344 342 342 343 345 345 346 345 344 343 342 341 341 341 342 343 343 344 346 348 349 350 351 350 348 345 342 339 338 339 339 338 336 333 330 327 326 325 325 324 324 326 329 332 335 335 335 333 333 335 338 340 340 338 335 330 327 326 327 329 330 332 333 335 337 338 340 342 345 348 350 348 345 343
11 7 4 0 357 355 353 351 349 347 346 345 344 344 344 345 346 346 347 346 346 345 343 342 341 341 342 343 345 347 348 350 352 352 352 350 348 346 343 340 339 339 338 337 336 334 332 329 328 328 329 327 326 325 326 330 333 335 333 330 330 332 334 335 335 334 331 328 326 326 327 329 331 332 334 336 337 339 341 342 343 345 347 346 345 343
10 6 3 360 357 355 352 350 348 347 347 347 346 346 347 348 348 348 348 349 349 348 347 345 345 344 344 344 345 348 350 352 353 353 352 351 349 347 344 342 340 339 338 336 335 334 334 332 331 330 331 330 327 324 325 330 334 335 333 331 331 332 332 332 331 330 328 326 326 328 329 330 332 333 334 335 337 339 341 343 343 343 343 343 344 344
8 6 3 360 357 355 353 351 350 349 349 349 349 350 350 351 351 351 351 351 351 350 350 349 348 347 346 345 346 347 350 352 353 353 353 351 349 347 346 344 342 340 339 336 334 333 335 335 333 333 333 332 328 325 325 329 333 335 335 334 332 329 327 327 328 328 327 326 327 329 331 333 333 334 335 335 336 338 340 341 342 343 343 344 344 344
9 5 2 360 357 355 354 353 352 352 351 351 352 353 353 353 353 352 352 352 352 351 351 349 349 348 348 348 347 347 348 350 352 353 353 352 350 348 346 345 343 342 341 338 335 333 334 335 335 336 337 334 330 327 328 330 332 334 334 334 332 327 322 322 324 326 327 328 330 332 334 335 336 335 335 336 336 337 337 338 340 342 345 346 345 343
9 6 3 0 358 357 356 355 355 355 355 354 354 354 355 355 355 354 353 352 352 352 351 350 349 349 349 349 349 348 348 349 351 352 353 352 350 349 347 345 344 343 342 341 339 336 334 333 335 337 339 337 333 331 331 332 332 332 332 332 329 325 322 322 324 326 328 330 332 334 337 338 337 336 335 335 334 334 335 336 337 340 343 345 344 342
9 6 4 1 360 358 358 357 357 358 357 357 357 356 356 356 355 355 354 353 352 351 351 350 350 350 349 349 349 349 349 349 350 351 351 351 349 348 347 346 345 345 344 342 341 339 337 335 336 337 338 337 336 336 336 335 333 330 329 329 327 324 323 324 327 329 331 331 333 336 339 340 339 336 334 332 332 332 333 335 337 339 341 343 343 342
9 7 5 3 1 360 359 359 359 359 359 359 359 358 357 356 355 355 354 353 351 350 350 350 350 350 349 349 350 350 349 349 350 351 350 349 349 348 347 347 346 346 345 344 342 341 340 340 341 341 340 337 336 336 338 337 334 329 326 326 326 325 325 327 330 332 334 334 335 337 340 340 338 335 333 331 331 331 333 335 338 340 341 342 342 341
8 7 5 3 2 1 1 360 359 359 359 359 360 359 359 357 355 354 353 352 351 350 349 349 349 349 349 350 351 351 350 350 350 351 350 349 348 348 347 347 346 346 346 345 343 342 342 343 344 345 345 341 337 335 335 334 332 329 327 328 328 329 329 329 332 334 336 336 337 339 339 338 336 333 331 330 329 330 332 335 338 341 343 343 342 341
8 6 5 4 3 2 2 1 360 359 359 358 358 359 358 357 355 353 352 351 350 350 349 349 349 349 349 350 351 352 352 352 351 351 351 350 349 348 348 348 347 346 346 345 344 344 344 345 347 349 349 347 341 335 333 332 332 332 332 333 333 332 331 331 333 336 338 338 338 338 338 336 334 332 330 328 327 328 331 334 338 342 345 345 343 342
8 7 6 5 4 3 2 1 360 359 358 358 357 357 356 355 355 353 352 351 351 351 350 350 349 349 350 351 352 353 353 353 353 353 353 351 350 349 349 349 348 347 346 345 345 345 346 346 348 351 353 351 344 337 333 333 335 337 337 336 335 334 332 332 335 338 339 337 336 336 335 334 333 332 330 328 327 328 331 334 338 342 346 346 345 343
9 7 7 6 5 4 2 1 360 359 358 357 356 355 354 354 354 353 353 352 352 352 352 352 352 351 352 352 353 354 355 354 354 354 354 353 352 351 351 350 350 348 347 346 346 346 347 346 346 347 351 352 347 341 338 338 339 339 338 337 336 336 335 335 336 338 338 336 334 334 333 333 332 331 330 329 328 328 329 332 336 342 348 348 347 345